Weather History for Quakertown, PA

Change the Weather History Date:

Saturday, June 8, 2013

  Actual Average (KABE) Record (KABE)
Temperature  
Mean Temperature 67 °F 67 °F  
Max Temperature 75 °F 78 °F 96 °F (2011)
Min Temperature 59 °F 56 °F 39 °F (1932)
Degree Days  
Heating Degree Days 0 2  
Month to date heating degree days 19  
Since 1 June heating degree days 19  
Since 1 July heating degree days 5787  
Cooling Degree Days 2 4  
Month to date cooling degree days 27  
Year to date cooling degree days 72  
Since 1 June cooling degree days 27  
Growing Degree Days 17 (Base 50)    
Moisture  
Dew Point 61 °F    
Average Humidity 84    
Maximum Humidity 100    
Minimum Humidity 61    
Precipitation  
Precipitation 0.01 in 0.15 in 2.10 in (1931)
Month to date precipitation 1.13  
Year to date precipitation 17.95  
Snow  
Snow 0.00 in 0.00 in 0.00 in (2002)
Month to date snowfall 0.0  
Since 1 June snowfall 0.0  
Since 1 July snowfall 32.9  
Snow Depth -    
Sea Level Pressure  
Sea Level Pressure 29.90 in    
Wind  
Wind Speed 6 mph (WSW)    
Max Wind Speed 13 mph    
Max Gust Speed 20 mph    
Visibility 9 miles    
Events      
T = Trace of Precipitation, MM = Missing Value Source: NWS Daily Summary

Daily Weather History Graph

Daily Weather History Graph

Search for Another Location

Airport:

Trip Planner

Search our weather history database for the weather conditions in past years. The results will help you decide how hot, cold, wet, or windy it might be!

Date:

Astronomy

Jun. 08, 2013 Rise Set
Actual Time 5:31 AM EDT 8:30 PM EDT
Civil Twilight 4:58 AM EDT 9:03 PM EDT
Nautical Twilight 4:16 AM EDT 9:45 PM EDT
Astronomical Twilight 3:28 AM EDT 10:33 PM EDT
Moon 5:37 AM EDT (6/8) 8:30 PM EDT (6/8)
Length of Visible Light 16h 04m
Length of Day
14h 59m
New Moon, 0% of the Moon is Illuminated
Jun 8
New Moon
Jun 16
First Quarter
Jun 23
Full
Jun 30
Last Quarter
Jul 8
New

Hourly Weather History & Observations

Time (EDT) Temp. Dew Point Humidity Pressure Visibility Wind Dir Wind Speed Gust Speed Precip Events Conditions
12:10 AM 59.0 °F 59.0 °F 100% 29.65 in 10.0 mi NNW 10.4 mph 16.1 mph N/A   Overcast
12:30 AM 59.0 °F 59.0 °F 100% 29.65 in 5.0 mi North 10.4 mph 16.1 mph 0.02 in   Overcast
12:50 AM 59.0 °F 59.0 °F 100% 29.66 in 5.0 mi NNW 8.1 mph - 0.03 in   Overcast
1:10 AM 59.0 °F 59.0 °F 100% 29.67 in 4.0 mi North 6.9 mph - N/A   Overcast
1:30 AM 59.0 °F 59.0 °F 100% 29.66 in 5.0 mi North 11.5 mph 16.1 mph N/A   Overcast
1:50 AM 59.0 °F 59.0 °F 100% 29.67 in 5.0 mi NNW 10.4 mph 16.1 mph 0.01 in   Overcast
2:10 AM 59.0 °F 59.0 °F 100% 29.67 in 5.0 mi NNW 12.7 mph 19.6 mph N/A   Overcast
2:30 AM 59.0 °F 59.0 °F 100% 29.68 in 5.0 mi North 6.9 mph - N/A   Overcast
2:50 AM 59.0 °F 59.0 °F 100% 29.69 in 7.0 mi NNE 4.6 mph - N/A   Overcast
3:10 AM 59.0 °F 59.0 °F 100% 29.69 in 9.0 mi WNW 6.9 mph - N/A   Mostly Cloudy
3:30 AM 59.0 °F 59.0 °F 100% 29.70 in 10.0 mi WNW 4.6 mph - N/A   Overcast
3:50 AM 59.0 °F 59.0 °F 100% 29.72 in 10.0 mi WSW 4.6 mph - N/A   Overcast
4:10 AM 59.0 °F 59.0 °F 100% 29.72 in 10.0 mi WSW 5.8 mph - N/A   Mostly Cloudy
4:30 AM 59.0 °F 59.0 °F 100% 29.74 in 10.0 mi SW 3.5 mph - N/A   Mostly Cloudy
4:50 AM 59.0 °F 59.0 °F 100% 29.75 in 10.0 mi SW 3.5 mph - N/A   Partly Cloudy
5:10 AM 59.0 °F 59.0 °F 100% 29.75 in 10.0 mi Calm Calm - N/A   Partly Cloudy
5:30 AM 59.0 °F 59.0 °F 100% 29.77 in 10.0 mi SSW 4.6 mph - N/A   Mostly Cloudy
5:50 AM 59.0 °F 59.0 °F 100% 29.79 in 10.0 mi SW 5.8 mph - N/A   Overcast
6:10 AM 60.8 °F 59.0 °F 94% 29.81 in 10.0 mi SW 4.6 mph - N/A   Overcast
6:30 AM 60.8 °F 59.0 °F 94% 29.82 in 10.0 mi Calm Calm - N/A   Overcast
6:50 AM 62.6 °F 59.0 °F 88% 29.83 in 10.0 mi SW 4.6 mph - N/A   Scattered Clouds
7:10 AM 62.6 °F 59.0 °F 88% 29.84 in 10.0 mi SW 4.6 mph - N/A   Partly Cloudy
7:30 AM 64.4 °F 60.8 °F 88% 29.85 in 10.0 mi WSW 4.6 mph - N/A   Mostly Cloudy
7:50 AM 64.4 °F 60.8 °F 88% 29.86 in 10.0 mi SW 6.9 mph - N/A   Overcast
8:10 AM 64.4 °F 60.8 °F 88% 29.87 in 10.0 mi SW 4.6 mph - N/A   Overcast
8:30 AM 66.2 °F 62.6 °F 88% 29.88 in 10.0 mi WSW 5.8 mph - N/A   Mostly Cloudy
8:50 AM 66.2 °F 62.6 °F 88% 29.88 in 10.0 mi West 6.9 mph - N/A   Scattered Clouds
9:10 AM 68.0 °F 62.6 °F 83% 29.89 in 10.0 mi West 6.9 mph - N/A   Mostly Cloudy
9:30 AM 68.0 °F 62.6 °F 83% 29.90 in 10.0 mi WSW 5.8 mph - N/A   Mostly Cloudy
9:50 AM 68.0 °F 62.6 °F 83% 29.91 in 10.0 mi WSW 6.9 mph - N/A   Overcast
10:10 AM 68.0 °F 62.6 °F 83% 29.91 in 10.0 mi West 4.6 mph - N/A   Overcast
10:30 AM 68.0 °F 62.6 °F 83% 29.92 in 10.0 mi WSW 4.6 mph - N/A   Overcast
10:50 AM 68.0 °F 62.6 °F 83% 29.93 in 10.0 mi WSW 6.9 mph - N/A   Overcast
11:10 AM 69.8 °F 62.6 °F 78% 29.93 in 10.0 mi WSW 5.8 mph - N/A   Overcast
11:30 AM 69.8 °F 62.6 °F 78% 29.94 in 10.0 mi WSW 3.5 mph - N/A   Overcast
11:50 AM 69.8 °F 62.6 °F 78% 29.94 in 10.0 mi WSW 3.5 mph - N/A   Overcast
12:10 PM 71.6 °F 62.6 °F 73% 29.94 in 10.0 mi West 4.6 mph - N/A   Overcast
12:30 PM 71.6 °F 62.6 °F 73% 29.95 in 10.0 mi WSW 5.8 mph - N/A   Overcast
12:50 PM 71.6 °F 62.6 °F 73% 29.95 in 10.0 mi West 3.5 mph - N/A   Overcast
1:10 PM 71.6 °F 62.6 °F 73% 29.95 in 10.0 mi SSW 5.8 mph - N/A   Overcast
1:30 PM 71.6 °F 62.6 °F 73% 29.95 in 10.0 mi SW 3.5 mph - N/A   Overcast
1:50 PM 71.6 °F 62.6 °F 73% 29.95 in 10.0 mi SW 3.5 mph - N/A   Overcast
2:10 PM 69.8 °F 62.6 °F 78% 29.96 in 10.0 mi SW 3.5 mph - N/A   Overcast
2:30 PM 71.6 °F 62.6 °F 73% 29.96 in 10.0 mi SSW 3.5 mph - N/A   Overcast
2:50 PM 71.6 °F 62.6 °F 73% 29.95 in 10.0 mi SW 4.6 mph - N/A   Mostly Cloudy
3:10 PM 73.4 °F 62.6 °F 69% 29.95 in 10.0 mi West 4.6 mph - N/A   Mostly Cloudy
3:30 PM 73.4 °F 62.6 °F 69% 29.95 in 10.0 mi SW 5.8 mph - N/A   Overcast
3:50 PM 73.4 °F 62.6 °F 69% 29.96 in 10.0 mi SSW 6.9 mph - N/A   Overcast
4:10 PM 73.4 °F 64.4 °F 73% 29.96 in 10.0 mi WSW 4.6 mph - N/A   Mostly Cloudy
4:30 PM 73.4 °F 62.6 °F 69% 29.97 in 10.0 mi WSW 4.6 mph - N/A   Mostly Cloudy
4:50 PM 75.2 °F 62.6 °F 65% 29.97 in 10.0 mi WSW 4.6 mph - N/A   Scattered Clouds
5:10 PM 73.4 °F 62.6 °F 69% 29.98 in 10.0 mi WSW 3.5 mph - N/A   Scattered Clouds
5:30 PM 75.2 °F 60.8 °F 61% 29.98 in 10.0 mi SW 5.8 mph - N/A   Mostly Cloudy
5:50 PM 75.2 °F 60.8 °F 61% 29.98 in 10.0 mi SW 4.6 mph - N/A   Scattered Clouds
6:10 PM 75.2 °F 60.8 °F 61% 29.99 in 10.0 mi SW 5.8 mph - N/A   Partly Cloudy
6:30 PM 75.2 °F 60.8 °F 61% 29.99 in 10.0 mi Calm Calm - N/A   Partly Cloudy
6:50 PM 73.4 °F 60.8 °F 65% 29.99 in 10.0 mi SW 4.6 mph - N/A   Clear
7:10 PM 73.4 °F 60.8 °F 65% 30.00 in 10.0 mi WSW 4.6 mph - N/A   Clear
7:30 PM 73.4 °F 60.8 °F 65% 30.01 in 10.0 mi West 3.5 mph - N/A   Clear
7:50 PM 71.6 °F 60.8 °F 69% 30.01 in 10.0 mi West 3.5 mph - N/A   Clear
8:10 PM 71.6 °F 60.8 °F 69% 30.03 in 10.0 mi SW 3.5 mph - N/A   Clear
8:30 PM 68.0 °F 60.8 °F 78% 30.03 in 10.0 mi Calm Calm - N/A   Clear
8:50 PM 68.0 °F 60.8 °F 78% 30.03 in 10.0 mi Calm Calm - N/A   Clear
9:10 PM 66.2 °F 60.8 °F 83% 30.04 in 10.0 mi Calm Calm - N/A   Clear
9:30 PM 64.4 °F 60.8 °F 88% 30.05 in 10.0 mi Calm Calm - N/A   Clear
9:50 PM 62.6 °F 59.0 °F 88% 30.07 in 10.0 mi Calm Calm - N/A   Clear
10:10 PM 62.6 °F 59.0 °F 88% 30.08 in 10.0 mi Calm Calm - N/A   Clear
10:30 PM 60.8 °F 59.0 °F 94% 30.09 in 10.0 mi Calm Calm - N/A   Clear
10:50 PM 60.8 °F 59.0 °F 94% 30.09 in 10.0 mi Calm Calm - N/A   Clear
11:10 PM 59.0 °F 59.0 °F 100% 30.09 in 10.0 mi Calm Calm - N/A   Clear
11:30 PM 59.0 °F 59.0 °F 100% 30.09 in 10.0 mi Calm Calm - N/A   Clear
11:50 PM 59.0 °F 57.2 °F 94% 30.10 in 10.0 mi Calm Calm - N/A   Clear